STARLINK-1582 (46043 NORAD) Tracking and Keplerian Element Data

This shows tracking and keplerian element data for the satellite.

Feedback or suggestion? Click here.




ElementValue
Catalog46043
NameSTARLINK-1582
Epoch Orbit1892
Epoch Day336.89096623
Epoch Year2020
RAAN122.8852
Inclination53.0004
Eccentricity0.0001651
Argument of Perigee86.8297
Mean Anonmoly273.288
Mean Motion15.05582267
Decay Rate-4.34E-06
L11 46043U 20055S 20336.89096623 -.00000434 00000-0 -10601-4 0 9991
L22 46043 53.0004 122.8852 0001651 86.8297 273.2880 15.05582267 18923

Live tracking and technical data element details for STARLINK-1582 (NORAD 46043). STARLINK-1582 can be tracked NOW for your location showing map with azimuth and elevation plus other details from your city location.

Track the satellite on the map from your city or location and see movement details for azimuth, elevation, latitude, longitude, range, height, and movement on the map or in text.







IsCatalogInMostPopularTable: catalog: 46043, numindb: 22
Update: records affected: 1



GetName: 46043 STARLINK-1582

Hit Count: updated at: Thu, 03 Dec 2020 08:05:04 GMT